FENGYUN 1C DEB

Satellite information

Favourite Embed

Satellite Type and Status

DEBRISIN ORBIT

Key statistics

Satellite FENGYUN 1C DEB at a glance.

Uptime

9715

Days in orbit

Revolutions

≈ 14.6

Per day

Orbit

SSO

Sun Synchronous Orbit

Inclination

99.0

Latest

Satellite identification and parameters

Extended collection of information and parameters for FENGYUN 1C DEB.

Object identification

Identified? True

Debris? True

Object name: FENGYUN 1C DEB

International designator: 1999-025DPB

Object number (NORAD): 35195

Object ID (CCSDS): 35195

Country: PEOPLES REPUBLIC OF CHINA (PRC)

Current information (Y/N): Y

RCS size: SMALL

Orbital parameters

Period: 98.902 minutes

Inclination: 98.9828 deg

SMA: 7084.277 km

Apoapsis: 779.661 km

Periapsis: 632.624 km

RAAN: 78.6916 deg

Eccentricy: 0.01037763

Argument of periapsis: 75.1357 deg

Mean anomaly: 286.1305 deg

Mean motion: 14.55993438 rev/day

Mean motion (dot): 0.0000558 rev/day2

B* drag term: 0.0011905179 1/REarth

Two-line elements (TLE)

Creation date: Dec. 10, 2025, 7:58 p.m.

Reference frame: TEME

Reference center: EARTH

Epoch: Dec. 10, 2025, 12:47 p.m. UTC

TLE line 0: 0 FENGYUN 1C DEB

TLE line 1: 1 35195U 99025DPB 25344.53316253 .00005580 00000-0 11905-2 0 9990

TLE line 2: 2 35195 98.9828 78.6916 0103776 75.1357 286.1305 14.55993438908944

Live tracking on map

Real-time ground track for satellite FENGYUN 1C DEB.

In-orbit conjunctions

A list of the most updated potential collisions computed for object FENGYUN 1C DEB.

Target Orbit TCA Probability of collision Miss distance Type
COSMOS 1680 LEO 2025-12-03 03:49:49 0.0001809349 822.0 (m) PAYLOAD
REX 2 SSO 2024-08-11 19:25:32 0.0001247411 911.0 (m) PAYLOAD

Associated space launch

Chinese polar orbiting meteorological satellite

FENGYUN 1C DEB was lifted into orbit during the mission ‘Long March 4B | Feng Yun 1C’, on board a Long March 4B space rocket.

The launch took place on May 10, 1999, 1:33 a.m. from Launch Complex 7.

For more information about the launch, click the button.

Launch to space Long March 4B | Feng Yun 1C
Long March 4B | Feng Yun 1C

Agency: N/A

Status: Launch Successful

Launch date: May 10, 1999, 1:33 a.m. UTC

Rocket: Long March 4B

Launch pad: Launch Complex 7

Location: Taiyuan Satellite Launch Center, People's Republic of China

...

Latest news about this satellite

There are no fresh news available about this satellite. Check back as we update our databases every day.


Newsletter sign-up

Weekly statistics, charts and insights to help you stay on top of the space industry.